Terug naar catalogus

IRIDIUM 33 DEB

ActiefPO
NORAD 34375·DEBRIS·🇺🇸 United States

Gelanceerd Sep 14, 1997 vanaf Baikonur Cosmodrome

Loading…

Volgende Passages (komende 24 uur)

TLE

VersSource: Space-Track

Epoch: Sep 14, 2026, 11:29 UTC

1 34375U 97051FT  26257.47882072  .00000483  00000-0  21436-3 0  9998
2 34375  86.4241  71.4573 0100488 331.6168  55.8455 14.18439219906206

Volg IRIDIUM 33 DEB in realtime met AllMySat

Download on the App Store